#timestamp,LO_Frequency,Hit 
1616767215.0,286046996.9,N
1616767215.9,286046996.9,N
1616767235.8,286046997.2,N
1616767255.6,286046997.1,N
1616767275.4,286046997.2,N
1616767295.2,286046997.1,N
1616767315.1,286046997.6,N
1616767316.0,286046997.6,N
1616767335.8,286046997.9,N
1616767355.6,286046997.1,N
1616767375.5,286046995.4,P
1616767395.3,286046999.1,N
1616767415.2,286046998.3,N
1616767435.9,286046998.2,N
1616767455.7,286047001.2,N
1616767475.6,286046998.2,N
1616767495.4,286046998.7,N
1616767515.2,286046998.9,N
1616767535.0,286046996.9,N
1616767536.0,286046996.9,N
1616767555.8,286046998.5,N
1616767575.6,286046998.7,N
1616767595.5,286046998.7,N
1616767615.3,286046999.0,N
1616767635.1,286046998.6,N
1616767655.9,286046998.9,N
1616767675.7,286046996.6,N
1616767695.5,286046998.9,N
1616767715.3,286046997.3,N
1616767735.2,286046997.1,N
1616767755.0,286046999.0,N
1616767755.9,286046999.0,N
1616767775.8,286046996.5,P
1616767795.6,286046998.5,N
1616767815.4,286046998.2,N
1616767835.3,286046998.6,N
1616767855.1,286046998.8,N
1616767856.0,286046998.8,N
1616767875.8,286046999.6,N
1616767895.7,286047001.1,N
1616767915.5,286046999.4,N
1616767935.3,286046999.2,N
1616767955.2,286046999.2,N
1616767975.9,286046998.7,N
1616767995.7,286046999.6,N
1616768015.6,286046997.0,P
1616768035.4,286046998.3,N
1616768055.2,286046998.4,N
1616768075.1,286046998.8,N
1616768076.0,286046998.8,N
1616768095.8,286046998.4,N
1616768115.6,286046998.2,P
1616768135.5,286046998.4,P
1616768155.3,286047001.2,P
1616768175.1,286046999.4,N
1616768195.9,286046998.6,N
1616768215.7,286046999.7,N
1616768235.5,286046999.9,N
1616768255.4,286046998.5,N
1616768275.2,286046999.3,N
1616768295.0,286047000.9,N
1616768295.9,286047000.9,N
1616768315.8,286046998.5,N
1616768335.6,286046998.1,N
1616768355.4,286046998.9,N
1616768375.3,286046998.2,N
1616768395.1,286046998.3,N
1616768396.0,286046998.3,N
1616768415.8,286046998.5,N
1616768435.7,286046999.0,N
1616768455.5,286046998.7,N
1616768475.3,286046998.4,N
1616768495.2,286046998.9,N
1616768515.9,286046996.9,P
1616768535.7,286047000.4,N
1616768555.6,286046998.7,N
1616768575.4,286047000.7,N
1616768595.2,286047001.1,N
1616768615.6,286046998.8,N
1616768635.5,286046998.1,N
1616768655.3,286047001.2,N
1616768675.1,286046999.4,N
1616768695.9,286046998.9,N
1616768715.7,286046998.8,N
1616768735.5,286046998.3,N
1616768755.3,286046998.4,N
1616768775.2,286046998.7,N
1616768795.0,286046998.9,N
1616768795.9,286046998.9,N
1616768815.7,286046999.4,N
1616768835.6,286047001.1,N
1616768855.4,286047001.1,N
1616768875.2,286046998.3,N
1616768895.1,286046998.5,N
1616768896.0,286046998.5,N
1616768915.8,286046999.6,N
1616768935.6,286046999.3,N
1616768955.5,286046999.3,N
1616768975.3,286046998.3,N
1616768995.1,286046998.9,N
1616769015.9,286047000.7,N
1616769035.7,286046998.8,N
1616769055.5,286047000.6,N
1616769075.4,286046998.3,N
1616769095.2,286046998.5,N
1616769115.0,286047001.0,N
1616769115.9,286047001.0,N
1616769135.8,286047000.8,N
1616769155.6,286046999.7,N
1616769175.4,286047001.1,N
1616769195.3,286046998.3,N
1616769215.1,286047001.1,N
1616769216.0,286047001.1,N
1616769235.8,286046998.1,N
1616769255.7,286046999.9,N
1616769275.5,286047000.0,N
1616769295.3,286047000.2,N
1616769315.2,286047000.1,N
1616769335.9,286047002.8,N
1616769355.7,286047000.4,N
1616769375.6,286046999.9,N
1616769395.4,286047000.6,N
1616769415.2,286046999.7,N
1616769435.1,286046999.8,N
1616769436.0,286046999.8,N
1616769455.8,286047000.5,N
1616769475.6,286046999.9,N
1616769495.5,286046999.7,N
1616769515.3,286047001.0,N
1616769535.1,286047000.1,N
1616769555.9,286047002.7,N
1616769575.7,286047001.0,N
1616769595.5,286047000.2,N
1616769615.4,286046998.1,N
1616769635.2,286047000.9,N
1616769655.0,286047000.5,N
1616769655.9,286047000.5,N
1616769675.8,286047000.1,N
1616769695.6,286046999.8,N
1616769715.4,286047000.9,N
1616769735.2,286047000.2,N
1616769755.1,286047000.5,N
1616769756.0,286047000.5,N
1616769775.8,286047000.2,N
1616769795.6,286047002.4,N
1616769815.5,286046999.8,N
1616769835.3,286047001.0,N
1616769855.1,286046999.9,N
1616769875.9,286047002.6,N
1616769895.7,286047002.4,N
1616769915.5,286047002.7,N
1616769935.4,286047000.3,N
1616769955.2,286046999.8,N
1616769975.0,286047000.3,N
1616769975.9,286047000.3,N
1616769995.8,286047002.3,N
1616770015.6,286047000.0,N
1616770035.4,286047000.3,N
1616770055.3,286047000.3,N
1616770075.1,286047000.0,N
1616770095.8,286047002.1,N
1616770115.7,286047002.2,N
1616770135.5,286047002.7,N
1616770155.3,286047002.3,N
1616770175.2,286047000.1,N
1616770195.9,286047002.3,N
1616770215.7,286046999.9,N
1616770235.6,286047002.2,N
1616770255.4,286047002.7,N
1616770275.2,286047000.2,N
1616770295.1,286047002.1,N
1616770296.0,286047002.1,N
1616770315.8,286047002.7,N
1616770335.6,286047000.1,N
1616770355.5,286047001.5,N
1616770375.3,286047002.6,N
1616770395.1,286047002.6,N
1616770415.9,286047002.8,N
1616770435.7,286047001.3,N
1616770455.5,286047002.5,N
1616770475.4,286047002.2,N
1616770495.2,286047001.9,N
1616770515.0,286047001.4,N
1616770515.9,286047001.4,N
1616770535.8,286047002.6,N
1616770555.6,286047001.5,N
1616770575.4,286047001.5,N
1616770595.3,286047001.6,N
1616770615.1,286047003.9,P
1616770635.8,286047002.4,N
1616770655.7,286047000.2,N
1616770675.5,286047000.4,N
1616770695.3,286047002.2,N
1616770715.2,286047002.5,N
1616770735.9,286047002.0,N
1616770755.7,286047000.4,N
1616770775.6,286047002.7,N
1616770795.4,286047001.9,N
